星链-35926(STARLINK-35926)

导读

STARLINK-35926是美国SpaceX星链星座的卫星,于2025年11月23日发射。星链项目旨在构建全球卫星互联网,为全球偏远地区、海洋等信号盲区提供高速宽带网络服务。该卫星入轨后,将与其他星链卫星协同工作,扩展星座覆盖范围,提升网络服务性能,进一步推动星链星座的部署进程。

Basic Information
目录编号:
66642
目录名称:
STARLINK-35926
国际标识:
2025-271AB
轨道中心:
EARTH
卫星名称:
星链-35926
卫星全名:
星链-35926(STARLINK-35926)
卫星状态:
在轨 (已飞行285 天)
发射日期:
2025-11-23 UTC
国别 :
美国 (US)
星等 :
--
Orbit Information
数据来源 国际轨道数据
星历时间: 2026-09-03T18:35:20+0800
18小时前
查看轨道信息
半长轴: 6840.836km
偏心率: 0.0001378
轨道倾角: 53.160°
近地点辐角 88.685°
升交点赤经 33.415°
平近点角 271.431°
近地点: 461.756km
远地点: 463.642km
周期: 93.848分钟
每日圈数: 15.344017
Detailed Information
固有亮度:
5
最大亮度:
2.5
卫星平台:
Starlink V1.0
覆盖范围:
全球
运营商:
太空探索技术公司
运营商所在国:
美国
制造商(研发单位):
太空探索技术公司
制造商所在国:
美国
使用方式:
暂无
Satellite Introduction
Starlink 计划是 SpaceX 推出的全球卫星互联网项目,通过发射低轨道卫星,为全球尤其是偏远地区提供高速、低延迟的互联网服务。自 2019 年起,Starlink 已部署数千颗卫星,旨在缩小全球数字鸿沟,推动互联网普及。该项目还为军事、航空等行业提供通信支持,带来广泛经济效益。
2D Orbit Map
3D Orbit Map
Orbit Altitude Analysis Chart
Orbit Inclination Analysis Chart
Orbit Comprehensive Analysis Chart
View Comprehensive Chart
Conjunction Data List
Event ID Objects TCA Miss Dist (km) Collision Risk Probability Collision Risk Index (CRI) Action
CDM_260905-003305-314906-664221
2026-09-05T
00:33:01+0000
0.563 km
远距离
7.227917E-5 中风险 0.72
CDM_260904-180705-854406-664221
2026-09-04T
18:07:45+0000
0.854 km
远距离
2.923665E-5 中风险 0.64
CDM_260904-233806-167606-664221
2026-09-04T
23:38:31+0000
1.209 km
极远距离
6.902878E-6 低风险 0.52
CDM_260905-060105-314906-664221
2026-09-05T
06:01:17+0000
1.405 km
极远距离
3.660909E-6 低风险 0.46
CDM_260905-033306-167606-664221
2026-09-05T
03:33:01+0000
1.778 km
极远距离
2.058534E-6 低风险 0.41
CDM_260904-121605-263406-664222
2026-09-04T
12:16:20+0000
2.345 km
极远距离
1.729786E-6 低风险 0.4
CDM_260904-194105-854406-664221
2026-09-04T
19:41:33+0000
2.180 km
极远距离
1.559123E-6 低风险 0.39
CDM_260904-003705-110506-664222
2026-09-04T
00:37:40+0000
2.984 km
极远距离
1.207085E-6 低风险 0.37
CDM_260905-042705-314906-664221
2026-09-05T
04:27:30+0000
2.447 km
极远距离
9.005157E-7 极低风险 0.34